• în România
  • Lista ţărilor
  • Pe 7 zile
  • Temperatura apei
  • Hartă satelitară
  • Meteo pe hartă
  • Widget-uri
  • user-avatar
    Intrare

    Meteo pe oră la Szeged

    Astăzi, 16 August, Joi

    Timp Temperatura Precipitaţii Vânt Presiune Umiditate
    00:00 +22°C° 0,1 mm 3 m/s 755 mmHg 80%
    01:00 +21°C° 0 mm 2 m/s 755 mmHg 84%
    02:00 +21°C° 0,1 mm 3 m/s 755 mmHg 84%
    03:00 +20°C° 0,1 mm 3 m/s 755 mmHg 84%
    04:00 +20°C° 0,1 mm 3 m/s 755 mmHg 84%
    05:00 +21°C° 0 mm 3 m/s 755 mmHg 80%
    06:00 +22°C° 0 mm 4 m/s 755 mmHg 75%
    07:00 +23°C° 0 mm 4 m/s 755 mmHg 70%
    08:00 +25°C° 0 mm 4 m/s 755 mmHg 64%
    09:00 +27°C° 0 mm 4 m/s 755 mmHg 57%
    10:00 +29°C° 0 mm 3 m/s 755 mmHg 51%
    11:00 +30°C° 0 mm 3 m/s 755 mmHg 47%
    12:00 +31°C° 0 mm 3 m/s 754 mmHg 43%
    13:00 +33°C° 0 mm 3 m/s 754 mmHg 39%
    14:00 +33°C° 0 mm 3 m/s 754 mmHg 38%
    15:00 +32°C° 0 mm 2 m/s 753 mmHg 37%
    16:00 +32°C° 0 mm 2 m/s 753 mmHg 36%
    17:00 +31°C° 0 mm 2 m/s 753 mmHg 41%
    18:00 +29°C° 0 mm 2 m/s 753 mmHg 45%
    19:00 +28°C° 0 mm 2 m/s 753 mmHg 49%
    20:00 +27°C° 0 mm 2 m/s 753 mmHg 53%
    21:00 +26°C° 0 mm 2 m/s 754 mmHg 57%
    22:00 +25°C° 0 mm 2 m/s 754 mmHg 61%
    23:00 +25°C° 0 mm 2 m/s 754 mmHg 64%

    Mâine, 17 August, Vineri

    Timp Temperatura Precipitaţii Vânt Presiune Umiditate
    00:00 +24°C° 0 mm 2 m/s 754 mmHg 67%
    01:00 +23°C° 0 mm 2 m/s 754 mmHg 70%
    02:00 +23°C° 0 mm 2 m/s 754 mmHg 72%
    03:00 +23°C° 0 mm 2 m/s 754 mmHg 74%
    04:00 +21°C° 0 mm 2 m/s 754 mmHg 76%
    05:00 +23°C° 0 mm 2 m/s 754 mmHg 73%
    06:00 +24°C° 0 mm 2 m/s 754 mmHg 70%
    07:00 +25°C° 0 mm 2 m/s 754 mmHg 66%
    08:00 +27°C° 0 mm 2 m/s 754 mmHg 59%
    09:00 +29°C° 0 mm 2 m/s 754 mmHg 52%
    10:00 +31°C° 0 mm 2 m/s 754 mmHg 45%
    11:00 +32°C° 0 mm 1 m/s 754 mmHg 41%
    12:00 +33°C° 0 mm 1 m/s 754 mmHg 37%
    13:00 +34°C° 0 mm 1 m/s 753 mmHg 33%
    14:00 +34°C° 0 mm 1 m/s 753 mmHg 32%
    15:00 +34°C° 0 mm 1 m/s 753 mmHg 32%
    16:00 +33°C° 0 mm 1 m/s 753 mmHg 32%
    17:00 +32°C° 0 mm 1 m/s 753 mmHg 34%
    18:00 +31°C° 0 mm 1 m/s 753 mmHg 37%
    19:00 +29°C° 0 mm 2 m/s 753 mmHg 40%
    20:00 +28°C° 0,1 mm 2 m/s 753 mmHg 44%
    21:00 +27°C° 0,1 mm 2 m/s 753 mmHg 47%
    22:00 +26°C° 0,1 mm 2 m/s 754 mmHg 50%
    23:00 +26°C° 0 mm 2 m/s 754 mmHg 52%

    Poimâine, 18 August, Sâmbătă

    Timp Temperatura Precipitaţii Vânt Presiune Umiditate
    00:00 +25°C° 0 mm 2 m/s 754 mmHg 55%
    01:00 +25°C° 0 mm 2 m/s 754 mmHg 57%
    02:00 +24°C° 0 mm 2 m/s 754 mmHg 59%
    03:00 +24°C° 0 mm 1 m/s 754 mmHg 61%
    04:00 +24°C° 0 mm 1 m/s 754 mmHg 62%
    05:00 +25°C° 0 mm 1 m/s 754 mmHg 59%
    06:00 +26°C° 0 mm 1 m/s 755 mmHg 55%
    07:00 +28°C° 0 mm 2 m/s 755 mmHg 52%
    08:00 +29°C° 0 mm 2 m/s 755 mmHg 45%
    09:00 +31°C° 0 mm 2 m/s 755 mmHg 39%
    10:00 +34°C° 0 mm 2 m/s 755 mmHg 32%
    11:00 +35°C° 0 mm 2 m/s 755 mmHg 30%
    12:00 +35°C° 0 mm 2 m/s 755 mmHg 28%
    13:00 +36°C° 0 mm 2 m/s 754 mmHg 27%
    14:00 +35°C° 0 mm 2 m/s 754 mmHg 27%
    15:00 +35°C° 0 mm 2 m/s 754 mmHg 27%
    16:00 +35°C° 0 mm 2 m/s 754 mmHg 28%
    17:00 +32°C° 0 mm 2 m/s 754 mmHg 30%
    18:00 +31°C° 0 mm 2 m/s 754 mmHg 33%
    19:00 +29°C° 0 mm 2 m/s 754 mmHg 36%
    20:00 +28°C° 0 mm 2 m/s 755 mmHg 37%
    21:00 +28°C° 0 mm 2 m/s 755 mmHg 39%
    22:00 +27°C° 0 mm 1 m/s 755 mmHg 40%
    23:00 +26°C° 0 mm 1 m/s 755 mmHg 42%

    19 August, Duminică

    Timp Temperatura Precipitaţii Vânt Presiune Umiditate
    00:00 +26°C° 0 mm 1 m/s 755 mmHg 44%
    01:00 +25°C° 0 mm 1 m/s 755 mmHg 46%
    02:00 +25°C° 0 mm 1 m/s 755 mmHg 48%
    03:00 +24°C° 0 mm 1 m/s 755 mmHg 50%
    04:00 +24°C° 0 mm 1 m/s 755 mmHg 52%
    05:00 +25°C° 0 mm 1 m/s 756 mmHg 51%
    06:00 +26°C° 0 mm 2 m/s 756 mmHg 50%
    07:00 +27°C° 0 mm 2 m/s 756 mmHg 48%
    08:00 +29°C° 0 mm 2 m/s 756 mmHg 44%
    09:00 +30°C° 0 mm 2 m/s 756 mmHg 40%
    10:00 +33°C° 0 mm 3 m/s 756 mmHg 36%
    11:00 +34°C° 0 mm 3 m/s 756 mmHg 34%
    12:00 +34°C° 0 mm 3 m/s 755 mmHg 32%
    13:00 +35°C° 0 mm 3 m/s 755 mmHg 30%
    14:00 +35°C° 0 mm 3 m/s 755 mmHg 31%
    15:00 +35°C° 0 mm 3 m/s 755 mmHg 31%
    16:00 +34°C° 0 mm 3 m/s 754 mmHg 32%
    17:00 +33°C° 0 mm 3 m/s 755 mmHg 35%
    18:00 +30°C° 0 mm 3 m/s 755 mmHg 39%
    19:00 +29°C° 0 mm 2 m/s 755 mmHg 42%
    20:00 +28°C° 0 mm 2 m/s 755 mmHg 45%
    21:00 +27°C° 0 mm 3 m/s 755 mmHg 48%
    22:00 +26°C° 0 mm 3 m/s 755 mmHg 51%
    23:00 +25°C° 0 mm 3 m/s 755 mmHg 55%

    20 August, Luni

    Timp Temperatura Precipitaţii Vânt Presiune Umiditate
    00:00 +25°C° 0 mm 3 m/s 755 mmHg 60%
    01:00 +24°C° 0 mm 3 m/s 755 mmHg 64%
    02:00 +22°C° 0 mm 3 m/s 755 mmHg 68%
    03:00 +22°C° 0 mm 3 m/s 755 mmHg 71%
    04:00 +21°C° 0 mm 3 m/s 755 mmHg 75%
    05:00 +22°C° 0 mm 3 m/s 755 mmHg 71%
    06:00 +24°C° 0 mm 3 m/s 756 mmHg 67%
    07:00 +25°C° 0 mm 3 m/s 756 mmHg 64%
    08:00 +27°C° 0 mm 3 m/s 756 mmHg 56%
    09:00 +29°C° 0 mm 4 m/s 756 mmHg 48%
    10:00 +32°C° 0 mm 4 m/s 756 mmHg 39%
    11:00 +33°C° 0 mm 4 m/s 756 mmHg 36%
    12:00 +34°C° 0 mm 4 m/s 755 mmHg 33%
    13:00 +35°C° 0 mm 4 m/s 755 mmHg 30%
    14:00 +35°C° 0 mm 4 m/s 754 mmHg 29%
    15:00 +35°C° 0 mm 4 m/s 754 mmHg 29%
    16:00 +35°C° 0 mm 4 m/s 754 mmHg 28%
    17:00 +33°C° 0 mm 3 m/s 754 mmHg 31%
    18:00 +30°C° 0 mm 3 m/s 754 mmHg 35%
    19:00 +28°C° 0 mm 2 m/s 754 mmHg 39%
    20:00 +28°C° 0 mm 2 m/s 754 mmHg 41%
    21:00 +27°C° 0 mm 2 m/s 755 mmHg 43%
    22:00 +26°C° 0 mm 2 m/s 755 mmHg 46%
    23:00 +25°C° 0 mm 2 m/s 755 mmHg 48%

    21 August, Marţi

    Timp Temperatura Precipitaţii Vânt Presiune Umiditate
    00:00 +25°C° 0 mm 1 m/s 755 mmHg 51%
    01:00 +24°C° 0 mm 1 m/s 755 mmHg 53%
    02:00 +24°C° 0 mm 1 m/s 755 mmHg 57%
    03:00 +23°C° 0 mm 1 m/s 755 mmHg 60%
    04:00 +23°C° 0 mm 1 m/s 755 mmHg 63%
    05:00 +24°C° 0 mm 2 m/s 755 mmHg 61%
    06:00 +25°C° 0 mm 2 m/s 756 mmHg 59%
    07:00 +26°C° 0 mm 2 m/s 756 mmHg 57%
    08:00 +28°C° 0 mm 2 m/s 756 mmHg 50%
    09:00 +30°C° 0 mm 2 m/s 756 mmHg 44%
    10:00 +32°C° 0 mm 2 m/s 756 mmHg 37%
    11:00 +34°C° 0 mm 2 m/s 755 mmHg 34%
    12:00 +35°C° 0 mm 2 m/s 755 mmHg 31%
    13:00 +36°C° 0 mm 2 m/s 754 mmHg 29%
    14:00 +36°C° 0 mm 2 m/s 754 mmHg 28%
    15:00 +36°C° 0 mm 2 m/s 754 mmHg 28%
    16:00 +35°C° 0 mm 2 m/s 753 mmHg 28%
    17:00 +34°C° 0 mm 2 m/s 754 mmHg 31%
    18:00 +31°C° 0 mm 2 m/s 754 mmHg 34%
    19:00 +29°C° 0 mm 2 m/s 754 mmHg 37%
    20:00 +29°C° 0 mm 2 m/s 754 mmHg 39%
    21:00 +28°C° 0 mm 2 m/s 754 mmHg 41%
    22:00 +27°C° 0 mm 2 m/s 754 mmHg 43%
    23:00 +26°C° 0 mm 2 m/s 754 mmHg 45%
    Arată mai mult